Home   Weather   Boulogne-Billancourt   Past weeks

Flag for France Past Weather in Boulogne-Billancourt, Île-de-France, France — Yesterday and Last 2 Weeks

Now
55 °F

Scattered clouds.


Feels Like: 54 °F
Forecast: 36 / 63 °F
Wind: 7 mph from Southwest

Location: Paris-Orly

Current Time: Apr 28, 2017 at 4:16:47 pm

Latest Report: Apr 28, 2017 at 3:30 pm


Visibility: N/A

Pressure: 30.01 "Hg

Humidity: 47%

Dew Point: 36 °F

Location of Boulogne-BillancourtLocation

Past Weather in Boulogne-Billancourt — Graph

°F

Boulogne-Billancourt Temperature Yesterday

Maximum temperature yesterday: 54 °F (at 5:30 pm)
Minimum temperature yesterday: 34 °F (at 7:00 am)
Average temperature yesterday: 45 °F

High & Low Weather Summary for the Past Weeks

 TemperatureHumidityPressure
High64 °F (Apr 14, 5:30 pm)88% (Apr 15, 11:00 am)30.63 "Hg (Apr 15, 11:00 am)
Low32 °F (Apr 20, 5:30 am)25% (Apr 21, 3:30 pm)29.83 "Hg (Apr 25, 3:00 am)
Average49 °F59%30.20 "Hg
* Reported Apr 13 3:00 pm — Apr 28 3:00 pm, Boulogne-Billancourt, Weather by CustomWeather, © 2017

Note: Actual official high and low records may vary slightly from our data, if they occured in-between our weather recording intervals... More about our weather records

Advertising

Boulogne-Billancourt Weather History for the Previous 24 Hours

Scroll right to see more
 ConditionsComfort  
Time TempWeatherWind HumidityBarometerVisibility
3:00 pm
Fri, Apr 28
59 °FScattered clouds.5 mph45%30.01 "HgN/A
2:30 pm57 °FScattered clouds.5 mph51%30.01 "HgN/A
2:00 pm55 °FScattered clouds.5 mph51%30.01 "HgN/A
1:30 pm54 °FScattered clouds.3 mph58%30.04 "HgN/A
1:00 pm54 °FBroken clouds.2 mph63%30.04 "HgN/A
12:30 pm52 °FBroken clouds.5 mph67%30.04 "HgN/A
12:00 pm48 °FBroken clouds.5 mph76%30.04 "HgN/A
11:30 am48 °FBroken clouds.5 mph82%30.04 "HgN/A
11:00 am46 °FBroken clouds.7 mph82%30.04 "HgN/A
10:30 am46 °FBroken clouds.9 mph87%30.04 "HgN/A
9:30 am43 °FLight rain. Partly sunny.8 mph87%30.04 "HgN/A
9:00 am41 °FBroken clouds.6 mph87%30.04 "HgN/A
8:30 am41 °FBroken clouds.6 mph87%30.01 "Hg5 mi
8:00 am41 °FPartly sunny.8 mph87%30.01 "HgN/A
7:30 am39 °FLight rain. Partly sunny.5 mph87%30.01 "HgN/A
7:00 am39 °FLight rain. Partly sunny.5 mph81%30.04 "HgN/A
6:30 am41 °FLight rain. Passing clouds.6 mph76%30.04 "HgN/A
6:00 am41 °FLight rain. Overcast.7 mph76%30.04 "HgN/A
5:30 am41 °FOvercast.5 mph70%30.04 "HgN/A
5:00 am41 °FMostly cloudy.7 mph70%30.04 "HgN/A
4:30 am41 °FOvercast.7 mph66%30.04 "HgN/A
4:00 am41 °FOvercast.6 mph66%30.04 "HgN/A
3:30 am39 °FOvercast.6 mph70%30.04 "HgN/A
3:00 am39 °FMostly cloudy.6 mph70%30.04 "HgN/A
2:30 am36 °FClear.6 mph81%30.07 "Hg10 mi
2:00 am36 °FClear.5 mph75%30.07 "Hg10 mi
1:30 am36 °FClear.3 mph75%30.07 "Hg10 mi
1:00 am36 °FClear.3 mph70%30.07 "Hg10 mi
12:30 am39 °FClear.3 mph61%30.07 "Hg10 mi
12:00 am41 °FClear.2 mph57%30.07 "Hg10 mi
11:30 pm
Thu, Apr 27
43 °FClear.5 mph53%30.07 "Hg10 mi
11:00 pm45 °FPassing clouds.6 mph49%30.07 "HgN/A
10:30 pm45 °FClear.6 mph46%30.07 "Hg10 mi
10:00 pm46 °FClear.5 mph43%30.07 "Hg10 mi
9:30 pm46 °FClear.6 mph43%30.07 "Hg10 mi
9:00 pm46 °FClear.9 mph40%30.04 "Hg10 mi
8:30 pm48 °FSunny.10 mph37%30.04 "Hg10 mi
8:00 pm48 °FSunny.12 mph43%30.04 "Hg10 mi
7:30 pm50 °FSunny.12 mph37%30.04 "Hg10 mi
7:00 pm50 °FPassing clouds.12 mph40%30.04 "HgN/A
6:30 pm50 °FPassing clouds.10 mph43%30.04 "HgN/A
6:00 pm50 °FSunny.14 mph40%30.04 "Hg10 mi
5:30 pm54 °FScattered clouds.9 mph38%30.04 "HgN/A
5:00 pm52 °FScattered clouds.12 mph44%30.04 "HgN/A
4:30 pm48 °FBroken clouds.13 mph50%30.07 "HgN/A
4:00 pm48 °FPartly sunny.12 mph58%30.07 "HgN/A
Weather by CustomWeather, © 2017

See weather overviewHow to use our weather pages